Location: Albany
(35.0000°S, 118.0000°E)
Time: 22:52:37

JAS-1B - Pass Details

Date: 21 February 2018
Orbit: 911 x 1744 km, 99.1° (Epoch: 18 March)

Event Time Altitude Azimuth Distance (km) Brightness Sun altitude
Rises 13:21:11 0° 190° (S) 4,496 11.0 -36.5°
Reaches altitude 10° 13:26:48 10° 221° (SW) 3,713 10.1 -35.8°
Maximum altitude 13:28:56 11° 235° (SW) 3,691 9.9 -35.5°
Enters shadow 13:30:10 11° 243° (WSW) 3,753 9.9 -35.4°
